Hourly Data Report for June 27, 2022

CLYDE RIVER A
NUNAVUT
Current Station Operator: NAVCAN

70°29'09.000" N
68°31'01.000" W
26.50 m
2400804
71090
YCY

Download Data

Hourly Data (June 2022)
Hourly Data Report for June 27, 2022
TIME
LST
Temp Definition
°C
Dew Point Definition
°C
Rel Hum Definition
%
Precip. Amount Definition
mm

Wind Dir Definition
10's deg

Wind Spd Definition
km/h
Visibility Definition
km
Stn Press Definition
kPa
Hmdx Definition


Wind Chill Definition


Weather Definition


00:00 0.2 -0.7 94 0.0 25 5 16.1 100.65     LegendNANA
01:00 -1.3 -1.3 100 0.0 25 9 16.1 100.67   -5 LegendNANA
02:00 -1.2 -1.2 100 0.0 25 11 16.1 100.72   -5 LegendNANA
03:00 -0.1 -0.2 99 0.0 25 9 16.1 100.77   -3 LegendNANA
04:00 0.5 -0.5 93 0.0 26 5 16.1 100.81     LegendNANA
05:00 1.0 0.1 94 0.0 9 9 16.1 100.84     LegendNANA
06:00 0.9 0.3 96 0.0 LegendMM 4 16.1 100.90     LegendNANA
07:00 2.2 0.1 86 0.0 LegendMM 5 16.1 100.91     LegendNANA
08:00 1.9 0.6 91 0.0 11 15 16.1 100.96     LegendNANA
09:00 1.9 0.2 88 0.0 14 8 16.1 100.99     LegendNANA
10:00 2.9 0.8 86 0.0 8 11 16.1 101.00     LegendNANA
11:00 2.6 0.2 84 0.0 11 5 16.1 101.04     LegendNANA
12:00 2.1 -0.5 83 0.0 9 11 16.1 101.08     LegendNANA
13:00 2.2 -0.6 82 0.0 12 5 16.1 101.10     Rain
14:00 2.1 -0.4 83 0.0 7 8 14.5 101.11     Rain, Snow
15:00 1.4 0.6 95 0.0 1 9 4.8 101.11     Snow
16:00 1.9 1.2 95 0.2 36 11 16.1 101.12     Rain
17:00 1.5 1.2 98 0.5 36 11 8.1 101.15     Snow
18:00 1.6 1.3 98 0.2 36 13 14.5 101.15     Rain
19:00 0.8 0.7 99 0.5 36 13 4.8 101.16     Snow
20:00 0.7 0.6 99 0.2 35 17 16.1 101.15     Rain
21:00 0.5 0.4 99 0.0 34 21 14.5 101.13     Rain
22:00 0.4 0.3 99 0.0 34 17 8.1 101.11     Fog
23:00 0.3 0.3 100 0.0 35 13 3.2 101.09     Fog

Notes on Data Quality.

Legend

  • E = Estimated
  • M = Missing
  • NA = Not Available*
  • [empty] = Indicates an unobserved value
Date modified: